Location: Anciles
(42.5833°N, 0.5167°E)
Time: 19:42:33
(UTC+00:00)

SL-4 R/B - Pass Details

Date: 10 December 2019
Orbit: 428 x 667 km, 51.6° (Epoch: 21 January)

Event Time Altitude Azimuth Distance (km) Brightness Sun altitude
Rises 18:44:49 0° 296° (WNW) 2,572 6.3 -25.0°
Reaches altitude 10° 18:47:17 10° 312° (NW) 1,733 5.0 -25.4°
Enters shadow 18:48:59 19° 335° (NNW) 1,307 4.1 -25.7°
